Theta_e
313 313 314 315 315 314 313 311 312 314 312 313 315 313 315 315 313 315 317 314 312 313 314 313 313 314 313 313 314 311 309 311 313 313 312 311 310 310 311 312 313 315 316 317 317 319 322 325 327 329 329 330 330 330 330 331 331 331 331 331 332 332 332 332 333 334 334 334 335 335 335 335 335 335 335 335 335 334 334 333 333 333 333 332 331 331
313 315 314 314 315 316 314 311 310 311 311 311 313 313 314 314 314 314 315 314 313 313 315 315 313 313 312 312 312 310 309 312 313 313 313 311 310 310 310 311 311 311 311 311 313 315 318 321 324 327 328 329 330 330 330 330 331 331 332 332 332 332 332 332 332 333 333 334 334 334 334 334 334 334 334 335 335 334 334 333 333 333 333 333 332 331
313 315 314 313 316 317 314 311 310 311 311 311 312 314 315 314 313 314 314 314 312 312 317 317 313 314 313 311 312 311 311 313 312 312 312 312 312 311 310 310 309 310 311 311 310 311 314 318 321 324 327 328 329 330 330 330 331 331 331 332 332 332 332 332 332 332 333 333 333 334 334 334 334 334 334 334 334 334 334 333 333 333 332 333 332 332
315 315 314 313 314 315 313 311 310 310 311 311 312 314 315 315 313 313 313 313 312 313 316 316 314 315 313 311 312 311 310 311 312 311 311 312 313 313 312 310 310 310 310 311 311 310 311 315 319 322 325 327 328 328 329 330 331 331 331 332 332 332 332 332 332 332 333 333 333 333 334 334 334 334 334 334 334 334 334 334 334 333 333 333 333 333
315 313 313 313 312 314 313 311 311 310 310 311 312 313 316 317 315 313 313 313 313 313 313 314 315 316 316 314 314 313 311 310 310 311 312 312 313 312 312 312 311 311 310 310 311 310 309 311 317 320 323 325 327 328 328 329 330 331 331 331 332 333 333 333 332 332 332 332 333 333 333 333 333 333 333 333 333 333 333 334 334 334 333 333 333 333
314 312 313 313 312 313 313 312 311 311 310 312 313 313 315 317 316 315 315 313 313 315 315 313 315 323 326 321 316 315 314 312 310 310 311 311 311 311 311 311 311 311 311 310 310 310 307 308 313 318 321 323 325 327 327 328 329 330 331 331 332 332 333 333 333 333 333 332 332 332 332 332 332 332 332 332 333 333 332 332 333 333 333 333 333 333
314 312 311 313 313 313 314 312 312 312 310 311 315 314 314 315 316 318 317 315 316 318 315 311 315 324 324 320 319 318 318 318 314 312 312 310 309 310 310 310 310 310 311 311 310 309 307 306 309 313 318 322 324 325 326 327 328 329 330 331 332 332 332 333 333 333 333 332 332 332 332 332 332 332 332 332 332 332 332 332 332 332 332 332 332 333
313 311 311 313 313 313 312 310 312 312 310 314 319 318 317 315 318 321 318 317 320 317 315 315 317 317 315 315 318 317 317 320 317 315 315 312 309 309 310 310 310 310 310 311 312 311 307 305 306 310 315 320 323 324 325 326 328 328 329 330 331 332 332 333 333 333 333 332 332 332 332 332 332 332 332 332 331 331 331 331 331 331 331 330 330 331
311 312 312 313 313 312 310 310 314 312 311 318 322 320 319 318 321 322 317 317 319 315 317 319 315 314 319 322 321 316 314 317 319 317 318 316 312 311 310 309 309 310 310 310 312 311 307 304 306 308 311 316 320 322 324 325 326 327 328 329 330 331 332 332 332 333 332 332 332 332 332 332 332 332 332 331 331 331 331 330 331 330 329 329 329 329
310 312 312 310 311 311 309 312 316 312 311 317 320 320 321 322 322 318 318 319 316 313 318 321 315 313 322 328 323 315 312 316 318 316 316 315 314 313 312 311 310 309 310 310 311 308 305 305 306 308 309 311 315 319 322 324 325 327 328 329 330 330 331 331 332 332 332 332 332 332 332 332 332 332 331 331 330 330 330 330 330 329 329 329 328 328
312 311 311 310 312 312 310 314 316 313 314 316 318 321 319 324 324 322 326 324 314 314 319 321 317 312 318 326 320 314 316 318 316 313 313 312 315 317 317 317 313 310 309 310 311 306 303 304 306 307 308 309 311 314 318 322 324 326 327 328 329 330 330 331 331 332 332 332 332 332 332 331 331 331 331 330 330 329 329 329 329 329 329 328 328 328
312 312 311 312 316 315 311 314 316 316 316 317 322 322 317 324 325 323 328 323 314 317 318 318 317 312 315 321 319 316 318 317 312 311 313 314 319 321 324 328 323 316 310 309 312 310 307 308 308 307 308 308 310 311 314 318 322 324 326 327 328 328 329 330 330 331 331 331 332 332 331 331 331 331 330 330 330 329 329 329 328 328 328 328 327 327
314 316 315 312 314 315 313 313 315 317 316 317 322 319 315 320 319 318 323 319 317 317 313 313 315 313 314 316 317 316 313 312 310 310 313 317 320 320 324 334 332 323 315 313 315 315 317 317 310 307 309 309 309 310 312 315 319 322 324 325 327 328 328 329 329 330 331 331 331 331 331 331 331 331 330 330 329 329 329 328 328 328 328 327 327 327
316 319 317 313 313 315 314 312 314 317 316 315 317 316 317 321 316 316 319 316 318 318 312 311 314 316 316 315 317 316 311 311 311 309 311 314 316 316 322 330 330 326 321 319 317 319 322 317 308 307 310 310 310 310 311 313 317 320 322 324 326 327 327 328 329 329 330 330 331 331 331 331 330 330 330 330 329 330 329 329 328 328 328 327 327 328
315 317 315 314 314 314 313 311 316 321 317 315 317 317 321 324 319 318 319 320 323 321 314 311 314 321 320 317 318 316 312 313 312 312 312 311 311 313 318 326 329 326 325 324 323 325 322 310 306 310 311 311 311 311 311 312 314 317 319 322 324 325 326 327 328 329 329 330 330 330 330 330 330 330 330 330 329 329 329 329 329 328 328 328 328 328
313 315 314 313 313 313 313 314 318 319 315 316 320 318 318 322 324 322 319 324 328 322 317 313 316 324 321 314 314 312 312 314 313 314 314 313 314 313 318 326 329 327 327 327 328 332 323 307 306 311 311 312 313 311 312 311 312 314 315 318 320 322 325 325 327 328 329 330 330 330 330 330 330 330 329 330 329 330 330 329 329 328 328 328 328 329
312 313 314 313 313 314 315 317 318 317 315 315 315 318 317 317 324 323 314 316 319 316 318 315 316 323 318 313 316 314 313 315 314 315 316 316 317 316 319 325 328 329 329 327 328 332 324 309 309 313 312 314 314 313 312 311 311 312 312 314 315 317 320 322 324 326 326 329 329 329 330 329 330 330 329 330 329 330 330 329 329 328 328 328 328 329
314 314 314 315 315 312 311 315 318 317 316 315 315 318 317 314 320 323 315 316 316 315 322 319 315 320 317 317 326 320 313 315 315 316 316 315 316 316 319 323 325 327 326 325 327 327 318 310 311 315 314 315 315 314 312 310 310 311 310 312 312 313 316 318 321 323 323 325 326 328 329 329 329 330 329 330 330 330 329 329 328 327 327 327 327 328
317 316 314 313 314 312 311 314 317 315 313 315 317 317 316 316 318 317 315 317 315 314 324 323 315 317 317 319 325 318 313 317 315 314 315 316 316 317 319 320 321 322 322 325 329 329 320 311 312 316 316 315 315 314 314 312 312 311 310 311 311 312 314 317 320 322 323 324 324 326 327 328 329 329 329 329 329 328 328 327 326 326 326 326 326 326
316 319 317 312 312 313 314 315 316 316 313 313 314 312 313 318 320 318 316 317 316 315 322 321 315 318 319 317 319 316 314 317 314 314 317 317 317 317 318 319 319 319 321 327 331 329 321 312 311 316 316 315 316 315 315 314 313 312 311 310 310 311 312 315 319 322 323 324 325 325 326 327 327 327 328 327 327 327 326 326 326 325 325 325 324 324
314 319 319 314 311 314 317 317 315 315 315 314 314 312 312 313 317 319 316 317 321 321 322 319 314 320 322 315 314 315 313 314 315 317 320 318 316 315 314 317 318 319 322 327 329 326 318 310 310 314 315 315 316 316 316 316 315 315 314 312 311 310 311 314 319 322 324 324 325 325 325 326 326 326 326 326 325 325 325 325 324 324 323 322 322 321
314 316 319 317 315 315 316 315 313 315 315 315 315 314 314 316 318 317 314 316 319 319 321 319 312 318 323 314 311 314 312 311 312 315 322 324 321 318 313 313 318 321 322 323 324 323 315 308 308 312 314 315 316 316 317 318 317 317 315 314 313 312 313 315 319 322 323 324 324 324 324 324 325 325 324 324 324 324 323 323 323 322 322 321 320 319
318 320 321 319 317 317 316 311 308 311 314 315 315 313 313 315 316 315 315 318 316 313 316 317 312 318 326 316 311 311 311 315 315 313 317 322 324 322 316 313 315 317 318 318 318 316 308 305 308 312 313 315 315 316 317 317 317 317 316 315 315 315 317 318 320 321 322 322 323 323 323 323 323 323 324 323 323 323 322 322 321 321 320 319 319 318
318 320 322 320 317 319 320 314 309 311 314 315 316 315 313 314 319 325 327 323 318 314 315 313 311 319 329 321 314 314 315 316 316 314 314 317 321 323 321 317 315 315 317 316 315 310 303 304 309 309 311 313 314 315 316 315 316 317 316 316 317 317 318 319 320 320 321 321 322 322 322 322 322 322 323 322 322 321 321 320 319 319 319 318 317 316
318 318 319 320 318 319 321 318 314 313 314 316 317 315 315 317 319 321 320 316 315 318 318 314 312 318 325 320 314 316 315 314 315 316 315 317 322 326 321 317 316 318 320 317 315 312 309 309 308 306 309 312 312 314 315 314 315 316 316 316 316 317 318 319 320 320 320 321 321 321 321 321 321 321 321 321 320 319 319 319 318 317 317 317 315 315
322 321 316 317 318 316 317 317 316 315 314 315 317 314 313 316 315 315 318 314 314 320 318 313 314 319 321 317 313 315 315 314 317 318 313 311 316 321 319 317 318 320 321 319 317 316 315 312 306 303 307 310 311 313 314 313 314 315 315 316 316 317 317 318 319 319 320 320 319 319 319 319 319 319 319 319 318 318 317 317 316 315 314 314 314 312
324 321 314 315 315 313 315 317 318 319 316 315 317 316 314 316 316 319 323 317 314 318 317 312 314 316 316 314 314 316 317 318 318 315 311 310 312 316 318 317 317 318 318 317 317 315 315 313 306 302 305 308 309 312 313 312 313 313 314 315 315 316 316 316 317 317 318 318 318 318 317 317 317 316 317 317 317 316 316 315 315 313 312 312 310 308
324 318 314 316 314 313 320 323 320 318 317 315 317 318 317 316 316 317 318 314 314 317 315 314 316 315 314 317 318 316 316 318 317 313 312 312 313 318 320 318 318 318 317 315 316 315 314 314 309 302 302 306 307 309 310 311 312 313 313 313 313 314 314 314 314 315 315 315 315 316 316 316 315 315 315 315 315 315 314 313 313 311 309 307 306 304
318 315 315 316 314 313 320 325 321 317 316 315 315 315 316 315 315 315 314 313 314 314 313 315 317 315 316 319 319 316 313 312 312 312 311 312 317 321 320 320 322 321 320 318 317 314 312 313 310 302 300 303 305 306 307 309 311 312 312 312 312 312 313 313 313 313 313 313 313 314 314 314 313 313 313 313 313 313 312 311 309 307 305 303 302 301
314 315 317 315 313 312 316 320 320 317 317 317 316 315 314 314 314 313 313 313 313 313 317 318 316 317 320 321 319 316 313 311 310 310 310 313 322 326 324 328 328 324 321 319 315 312 310 310 307 300 298 301 302 303 305 306 309 311 312 312 312 312 312 313 313 313 312 312 312 312 312 312 312 312 311 311 311 310 309 307 305 303 302 300 298 296
313 316 316 314 313 313 314 316 315 315 316 317 316 315 314 314 314 313 313 313 313 313 315 315 315 317 319 320 318 313 311 311 311 313 312 313 323 331 332 334 332 326 321 316 313 312 310 308 305 299 297 299 300 302 304 305 307 309 310 311 311 312 312 312 312 312 312 312 311 311 311 311 310 310 310 309 308 306 305 303 302 300 298 296 294 292
314 314 311 313 315 312 312 314 313 312 313 314 315 315 314 313 313 312 312 313 312 312 312 313 313 314 316 319 318 312 310 312 313 317 315 314 321 333 336 336 334 328 320 314 312 312 309 308 307 301 298 298 299 301 303 304 306 307 308 309 310 311 310 310 311 311 310 310 310 309 309 309 308 307 306 305 303 302 301 300 299 296 294 292 291 290
317 315 312 315 316 312 310 312 314 314 313 313 314 313 312 313 313 312 313 313 312 312 312 312 312 315 317 318 316 313 314 316 317 320 319 316 322 329 330 330 331 326 318 313 312 312 310 307 304 300 299 299 299 300 302 304 306 306 307 308 308 309 308 308 309 309 308 308 308 307 307 306 305 303 301 301 300 298 298 296 294 292 291 290 290 289
317 316 315 316 316 314 310 312 315 316 315 315 315 314 312 312 312 312 313 313 312 311 311 311 313 317 316 314 315 316 318 319 317 316 315 315 320 325 326 326 325 321 316 313 312 311 309 304 300 300 300 300 300 300 301 304 305 306 306 307 306 306 306 306 307 307 306 304 304 304 303 302 301 300 298 298 297 295 294 293 291 290 289 289 289 289
316 316 317 317 317 315 312 313 316 316 314 314 318 317 312 310 312 313 312 312 312 311 311 311 314 317 317 316 317 317 317 316 315 315 315 313 314 318 323 325 323 318 316 315 313 311 306 301 299 300 299 300 300 300 300 301 303 303 304 304 304 304 304 304 304 303 302 301 300 300 300 300 299 298 297 296 294 293 291 290 289 289 289 289 289 289
314 314 316 315 315 314 313 314 316 315 314 315 316 313 311 311 312 312 313 312 311 311 311 311 311 315 318 318 317 317 316 313 313 317 319 316 314 314 318 322 321 318 317 314 312 309 304 300 301 301 299 299 299 299 299 300 301 302 301 301 302 301 302 302 301 300 299 298 298 298 298 299 298 297 295 293 292 291 289 289 289 289 289 289 289 289
313 312 314 312 311 314 315 314 315 315 314 314 313 311 311 312 312 312 313 313 311 311 311 310 310 312 314 315 316 317 315 312 313 317 318 320 320 315 312 313 313 312 311 308 306 306 303 302 302 301 300 299 299 299 299 299 299 300 299 299 299 299 299 299 299 298 297 297 297 297 297 298 298 295 293 291 290 289 289 289 289 288 288 288 288 288
312 313 314 312 312 314 316 315 315 316 313 312 314 313 311 312 313 312 313 313 312 311 310 309 310 311 311 313 317 316 313 311 313 314 314 319 322 316 311 310 305 302 303 303 303 304 304 302 302 301 299 299 298 298 299 299 299 299 298 297 297 297 297 297 296 296 296 295 295 295 296 297 296 293 291 290 289 289 288 288 288 288 288 288 288 287
314 314 313 314 313 313 316 315 314 314 312 314 317 316 313 313 313 313 313 314 313 313 311 309 310 312 311 312 314 314 313 313 312 312 315 318 317 315 317 317 307 298 299 302 303 303 303 301 300 299 298 298 298 298 299 299 298 298 296 295 295 295 294 295 295 295 295 295 294 294 294 294 293 291 290 289 288 288 288 288 288 288 288 288 288 287
313 312 312 314 314 313 313 314 314 312 312 316 318 314 311 311 313 315 316 313 313 316 315 311 310 312 312 311 311 312 313 312 311 313 320 321 316 312 312 315 310 301 298 300 301 302 302 300 298 298 297 298 299 298 298 298 297 296 295 293 293 293 293 294 294 294 294 293 292 292 291 291 290 289 289 289 288 288 288 288 288 288 287 287 287 287
314 313 314 314 313 312 312 313 314 313 314 320 318 311 310 311 312 314 313 313 318 319 314 311 310 310 310 310 309 310 310 311 314 318 320 320 317 314 304 299 298 297 297 299 301 300 300 299 298 298 298 298 299 298 297 297 295 294 293 292 292 292 293 293 293 292 292 291 290 289 289 289 289 289 288 288 288 288 288 288 288 288 288 287 287 287
314 314 315 313 312 313 313 312 314 314 316 318 313 306 309 312 312 314 313 315 322 320 312 309 310 310 310 309 309 309 309 311 317 321 320 316 317 319 308 296 294 296 295 296 298 299 298 297 296 297 297 296 297 297 296 295 294 293 292 291 291 291 291 291 291 290 290 289 288 288 288 288 288 288 288 288 288 288 288 288 287 287 287 287 287 286
313 312 313 312 311 313 313 311 313 314 312 311 308 307 310 312 314 321 320 314 315 319 316 313 311 311 312 310 308 309 310 311 314 319 320 314 311 313 308 299 298 298 293 292 295 296 296 295 294 295 295 295 295 295 294 294 293 292 290 290 290 290 290 289 289 289 288 288 287 287 287 287 288 288 288 288 288 288 288 287 287 287 287 286 286 285
313 312 313 311 310 313 313 311 313 313 308 308 310 311 310 311 316 323 320 313 314 316 317 318 317 312 311 313 312 309 310 312 312 315 318 314 308 306 304 298 295 293 291 292 294 294 294 295 294 293 294 293 293 293 293 293 292 290 289 289 289 288 288 288 288 287 287 286 287 287 287 287 287 288 288 288 287 287 287 287 286 286 286 286 285 285
312 311 314 315 312 312 312 311 313 314 308 306 312 313 310 312 318 320 316 316 321 316 311 316 321 313 308 312 313 311 311 312 311 311 315 315 308 304 302 297 292 291 291 291 292 293 293 294 293 292 292 291 291 292 291 292 292 290 288 288 288 287 288 287 286 286 286 286 286 287 287 287 287 287 287 287 287 287 287 286 286 285 285 285 285 284
313 313 315 318 315 311 311 311 314 315 309 306 312 315 313 312 316 316 315 317 322 317 311 317 325 319 310 309 312 314 315 313 311 309 310 310 307 300 296 294 290 289 291 291 291 292 292 292 292 291 290 289 290 290 290 290 290 290 288 287 287 287 287 287 286 286 286 286 286 286 286 286 286 285 286 286 286 286 287 286 286 285 285 284 284 284
313 313 312 315 314 311 311 312 312 313 311 307 309 312 312 312 313 314 316 317 319 318 314 316 320 317 308 306 312 319 319 312 310 310 306 305 305 299 295 294 291 288 289 290 290 291 291 291 290 289 288 288 289 289 289 289 289 289 288 287 287 288 287 287 286 285 285 285 285 285 285 285 285 285 285 285 285 285 285 285 285 285 285 285 284 284
312 310 311 315 314 311 311 313 312 312 311 308 308 311 312 313 315 316 316 315 313 311 309 308 309 310 309 307 309 316 318 311 310 312 307 302 300 297 294 293 290 288 289 289 290 290 290 289 289 288 287 287 287 288 288 288 288 288 288 288 287 287 286 286 285 284 284 284 284 284 284 284 285 285 284 284 284 284 284 284 285 285 285 285 285 285
309 309 313 316 313 310 311 312 310 311 310 308 309 313 315 316 316 316 312 308 308 309 308 307 306 306 310 311 307 309 316 314 308 308 307 302 299 296 293 291 288 288 289 289 289 290 289 289 288 288 287 287 287 287 287 287 287 287 287 288 287 286 285 284 283 283 283 283 283 283 283 283 284 284 283 283 283 283 284 284 284 285 285 285 284 285
308 311 313 312 311 310 310 310 310 311 313 312 311 312 314 312 310 311 310 310 312 313 313 314 310 302 302 306 305 308 317 317 306 302 304 303 299 296 292 289 288 288 288 288 288 288 288 289 288 287 287 286 286 286 286 286 286 286 286 287 286 285 284 283 282 282 281 281 282 282 282 282 282 282 282 282 282 282 282 282 283 283 284 284 283 283
310 312 310 310 311 310 309 310 310 309 312 313 310 310 311 308 308 311 314 315 316 312 310 314 317 312 307 303 298 302 313 316 305 300 304 303 296 292 290 288 288 287 286 286 287 286 286 287 287 287 286 286 285 285 285 285 285 285 285 285 285 285 284 283 282 281 280 281 281 281 282 282 281 281 281 281 281 282 281 280 280 281 281 282 282 281
Wind_Speed
4 5 6 6 7 9 9 7 4 3 5 6 4 5 6 6 5 5 3 4 2 5 6 8 8 12 12 11 9 2 0 4 6 7 9 8 7 7 8 9 11 11 13 16 18 20 25 29 31 31 32 32 32 33 34 34 36 37 37 37 39 39 39 38 38 37 37 36 35 35 36 37 36 35 34 34 33 32 31 30 29 29 28 28 27 27
4 8 7 5 6 8 8 6 3 4 4 2 3 4 5 6 5 5 3 4 2 3 4 3 5 12 13 11 9 2 2 7 8 9 10 10 8 7 8 11 12 10 10 11 12 18 23 26 29 30 30 31 32 33 34 35 36 38 38 39 39 39 38 39 40 39 39 38 37 36 37 36 34 34 35 35 35 34 33 31 31 31 30 29 29 28
5 8 8 7 6 7 6 6 6 6 6 5 3 3 4 4 3 4 3 3 2 2 3 1 3 10 13 11 8 5 7 8 9 10 10 9 9 8 10 12 11 9 10 10 11 15 21 25 28 29 30 33 34 35 35 36 36 37 38 39 39 38 39 40 41 41 40 40 39 38 36 35 34 34 35 35 34 34 34 33 33 32 32 31 30 29
7 8 10 9 7 9 8 6 8 6 6 6 4 4 4 2 2 2 3 2 2 1 1 1 1 7 9 8 8 8 9 9 10 9 8 8 9 11 11 10 10 11 13 12 10 12 18 21 24 28 31 33 34 34 35 36 36 37 38 39 39 39 40 41 41 42 41 40 38 37 35 33 32 33 33 33 34 34 35 35 35 34 33 32 31 29
7 4 8 9 7 10 9 7 9 7 6 7 6 6 4 2 4 4 2 0 1 2 2 2 3 6 7 6 8 7 3 7 8 7 8 8 10 11 9 8 10 12 12 12 11 11 13 18 24 29 32 32 33 34 36 38 38 38 38 39 40 41 41 41 41 41 41 38 35 34 32 28 28 29 28 29 33 35 35 36 36 35 34 33 31 30
6 3 8 10 7 9 10 10 11 9 6 6 6 7 6 5 5 3 1 2 0 3 1 1 2 5 5 5 9 6 3 7 6 5 10 11 10 10 9 10 12 11 10 10 11 10 12 17 22 26 30 31 33 36 37 38 39 39 39 39 40 41 41 40 40 40 40 39 36 34 31 28 27 27 28 32 35 34 33 34 34 33 33 32 31 30
5 4 7 10 8 8 9 10 11 10 7 5 6 8 8 7 5 4 4 3 2 4 2 1 4 6 6 5 8 4 5 9 7 5 10 11 9 9 10 12 11 10 10 9 10 9 11 16 18 22 27 31 34 38 38 38 38 39 39 39 40 40 40 40 40 40 39 39 37 36 35 34 32 30 32 34 33 30 30 30 30 31 31 31 30 30
6 6 5 9 9 7 8 8 8 9 8 5 5 9 10 7 7 7 7 5 4 2 2 1 3 4 5 6 6 3 4 10 10 9 10 10 10 10 11 12 12 11 11 10 10 10 12 16 19 24 29 34 38 39 38 37 37 38 39 39 39 40 40 40 39 39 40 39 38 37 37 36 35 34 34 32 28 27 27 26 27 28 29 29 29 29
7 12 11 12 10 9 10 7 7 10 7 6 4 8 8 7 7 7 7 4 1 1 3 3 3 3 6 6 4 3 3 9 10 10 11 10 11 10 11 12 11 11 10 10 11 11 12 17 24 29 31 34 38 37 36 37 37 38 38 38 38 38 39 39 38 39 39 40 39 38 37 35 35 34 32 28 25 25 24 24 25 26 27 28 27 27
5 11 12 13 10 9 8 5 8 11 7 4 5 7 5 4 4 4 6 4 1 3 7 6 5 4 5 6 4 2 3 7 9 9 9 9 8 8 9 11 10 9 8 9 10 10 14 20 25 27 27 29 32 33 33 34 34 34 35 36 37 37 38 38 38 38 39 40 39 38 37 36 34 32 30 27 24 23 22 23 24 24 25 26 26 27
2 1 5 7 6 6 7 3 4 8 6 5 6 6 6 4 4 3 2 3 2 6 7 6 5 3 5 6 4 4 5 7 8 9 9 8 7 7 8 9 9 8 8 9 9 10 14 19 21 20 22 24 26 28 29 30 30 31 32 34 35 36 37 37 38 38 39 39 39 38 37 36 34 32 29 27 25 23 22 22 23 24 24 25 26 26
4 3 2 2 1 5 7 3 1 1 6 7 5 4 4 2 2 3 3 2 4 7 5 3 2 3 5 6 4 6 7 7 8 9 10 8 7 7 7 7 7 7 7 7 7 8 10 12 15 17 20 23 23 23 26 29 30 30 31 32 33 35 35 36 36 37 37 37 38 38 37 36 34 32 30 29 28 26 25 24 24 24 23 24 24 24
2 1 2 2 1 4 8 5 1 3 4 6 4 6 5 0 0 2 2 2 5 5 2 2 1 3 7 6 7 11 11 10 9 8 9 8 7 8 7 6 5 5 6 6 6 7 6 7 10 13 16 18 20 22 24 27 29 30 30 31 32 33 33 33 34 35 35 36 37 37 36 35 34 32 31 30 29 28 27 27 25 24 24 23 23 23
4 5 3 2 3 3 9 9 4 2 4 6 5 6 6 3 3 6 4 1 4 4 2 2 1 3 5 4 11 15 14 13 10 8 9 9 8 9 7 6 6 5 4 5 5 5 5 5 7 9 10 11 14 17 20 23 26 27 28 29 30 31 30 30 31 32 33 34 35 35 35 35 34 32 31 30 29 29 28 28 27 26 26 24 24 23
9 5 5 6 2 3 9 9 6 7 5 5 4 5 5 5 5 6 3 3 4 3 2 2 2 4 3 3 9 12 11 10 7 7 8 8 9 8 7 6 6 6 5 4 4 4 4 6 7 8 8 8 9 11 13 16 20 23 25 27 28 28 28 28 29 30 31 32 33 33 33 33 33 32 30 29 29 28 28 28 28 27 26 24 23 22
10 7 3 1 1 5 7 4 4 9 5 4 3 5 5 5 5 3 3 5 5 1 2 3 3 4 4 6 9 7 7 8 7 7 6 7 8 6 6 7 6 6 5 4 4 4 5 5 6 7 8 8 8 8 10 11 14 18 21 23 25 26 26 27 27 28 29 30 31 32 32 31 31 30 28 28 27 27 27 27 27 26 25 24 22 19
9 4 3 2 2 4 5 4 2 4 4 2 3 5 6 3 7 4 2 0 3 2 4 2 3 5 3 7 10 5 5 8 7 6 6 8 7 5 7 8 6 6 5 5 4 4 5 4 4 6 7 7 7 8 9 10 11 12 15 18 20 22 23 24 26 27 27 28 29 29 29 29 28 28 28 27 27 26 26 26 26 25 23 22 19 16
6 2 3 1 3 1 3 5 2 1 4 5 4 7 3 2 3 4 2 1 1 4 5 0 4 4 2 4 7 7 7 10 9 7 6 7 5 5 8 7 7 7 5 5 4 4 4 3 3 4 5 5 5 5 6 9 10 10 11 13 15 17 19 21 22 23 24 24 25 25 25 26 26 27 27 27 26 25 25 25 23 21 20 18 16 15
5 3 4 1 3 1 1 5 2 2 2 5 5 5 4 3 3 1 3 3 3 4 4 3 3 4 5 5 5 6 8 10 10 7 5 7 6 7 8 8 8 6 5 5 5 4 3 2 3 4 4 4 4 4 4 6 8 9 10 11 12 13 14 15 16 17 18 18 20 21 22 23 23 24 24 24 24 23 23 22 20 18 18 17 16 16
4 4 2 2 0 1 3 2 7 5 1 2 1 3 2 3 5 3 3 4 4 5 4 3 4 4 6 6 6 10 11 9 9 7 7 9 9 8 8 7 7 6 6 6 5 3 2 2 4 5 4 4 4 4 4 5 5 7 9 10 11 11 11 12 13 14 15 15 17 18 19 20 20 21 21 21 21 20 20 19 19 19 20 19 18 17
3 3 3 1 2 1 2 3 8 8 5 3 2 5 3 0 2 2 1 3 4 4 3 2 5 6 5 6 10 14 14 11 9 7 7 8 8 8 8 7 6 6 6 5 4 4 3 3 5 5 5 5 5 5 5 5 5 6 8 9 11 12 13 13 14 14 15 16 16 17 17 18 18 19 19 19 19 20 20 21 21 21 20 18 17 16
3 3 5 3 1 3 3 3 3 4 5 6 5 7 6 2 3 2 4 2 2 3 4 3 6 8 5 6 10 14 13 10 7 7 7 7 7 8 8 7 7 5 5 4 4 4 3 4 6 7 7 7 7 6 6 6 7 8 9 9 11 13 14 15 16 16 16 16 17 16 17 17 17 18 19 20 21 22 23 23 21 20 18 16 15 15
3 4 5 2 3 5 3 2 2 2 2 3 3 5 6 5 5 6 8 4 1 1 2 3 5 8 5 5 8 10 8 4 2 5 6 7 6 7 7 6 4 1 1 3 4 3 4 5 7 8 8 8 8 8 8 8 8 9 11 12 13 14 15 16 16 17 17 18 18 18 18 18 18 19 21 22 23 23 22 21 19 17 16 15 15 14
3 5 4 1 2 3 5 4 2 2 2 2 5 4 6 6 5 5 6 4 4 4 3 1 6 8 4 3 4 7 6 5 3 5 6 7 6 5 5 3 0 2 3 4 4 4 4 6 7 9 10 9 9 9 9 9 10 11 13 14 14 15 16 17 17 18 19 19 19 20 20 20 21 22 23 23 23 22 21 19 18 16 15 15 15 14
3 4 5 4 2 3 4 4 2 2 3 4 4 3 5 4 5 4 2 3 3 6 7 5 8 6 4 5 2 3 5 6 7 5 6 7 5 4 3 3 3 4 4 4 4 4 4 6 6 8 10 10 10 10 10 11 11 13 14 15 16 17 18 18 18 19 20 21 21 22 22 22 23 23 24 23 22 20 20 19 17 16 15 16 16 15
3 4 5 7 7 7 8 6 5 5 3 1 1 3 4 5 7 5 3 3 5 5 7 8 8 5 5 6 3 3 4 5 7 5 5 5 3 2 2 3 4 4 5 5 5 4 5 5 5 7 9 10 11 12 12 13 13 14 15 16 17 18 20 20 20 21 22 22 22 22 22 22 21 21 21 21 20 19 19 18 16 15 15 15 16 16
3 3 5 8 11 12 10 6 4 8 6 5 4 6 6 6 7 6 4 5 7 2 4 11 10 6 5 4 4 7 5 6 7 4 3 4 3 1 2 3 3 4 4 4 5 5 4 4 5 7 9 11 12 13 13 14 15 15 16 16 17 18 19 20 20 21 21 22 22 21 20 20 18 18 18 19 19 19 19 18 17 16 16 16 17 18
4 3 8 11 14 11 5 4 6 9 12 14 12 11 11 11 10 8 9 15 9 5 8 12 10 9 8 6 8 9 6 6 6 4 4 5 3 1 3 3 3 4 3 4 5 6 6 6 6 7 9 11 13 13 14 15 16 16 16 16 16 17 18 19 19 19 19 19 21 21 20 19 18 19 21 21 22 22 21 20 19 19 19 19 21 23
5 7 8 9 11 6 2 4 8 9 8 10 13 16 15 13 14 14 20 23 13 9 11 6 10 10 9 7 9 8 5 5 5 4 4 2 3 3 4 5 5 5 5 6 7 6 6 7 6 7 10 13 14 15 15 16 17 17 17 17 18 18 19 20 20 20 20 20 22 22 22 22 22 23 24 24 24 23 22 21 21 21 22 24 26 27
5 7 7 9 10 5 1 5 9 9 6 6 11 16 13 13 17 20 26 25 16 14 9 5 4 6 6 7 10 7 5 4 2 2 2 5 5 5 6 6 6 7 8 8 8 7 7 7 7 9 12 14 16 17 17 18 19 20 20 20 20 20 21 22 22 22 22 23 24 25 25 25 25 24 23 23 23 23 23 24 24 26 27 28 28 28
4 6 6 8 7 3 2 3 4 6 8 8 10 13 13 15 19 23 25 19 12 14 8 3 5 7 5 7 7 4 3 2 2 3 3 5 6 7 6 6 8 9 9 9 9 8 8 8 7 9 12 16 18 20 20 20 21 21 22 22 22 22 22 23 23 24 24 25 25 26 26 25 25 24 23 23 24 25 26 28 29 30 30 30 29 28
3 3 4 6 7 5 2 4 3 3 4 3 8 13 18 20 21 22 18 13 13 15 10 6 9 6 5 7 6 2 3 4 6 6 5 6 6 7 7 8 9 10 10 10 9 9 9 10 10 11 15 18 20 21 22 22 22 22 23 23 24 24 24 23 23 24 25 26 26 26 26 25 25 25 25 25 27 28 30 31 31 32 31 30 29 28
6 5 3 6 8 4 1 5 6 7 4 4 10 17 22 21 19 15 10 11 15 12 9 11 12 6 6 7 7 4 3 6 8 7 6 6 6 7 8 9 10 10 10 10 10 11 12 12 13 15 17 19 20 22 23 24 25 25 24 25 25 25 25 24 24 24 25 26 27 28 27 26 26 27 27 29 29 30 31 32 32 32 31 31 30 28
7 7 4 5 5 1 1 5 6 4 6 10 8 13 21 21 18 14 13 16 15 12 12 14 7 5 7 8 9 8 8 9 9 7 6 5 6 8 9 10 10 10 9 10 11 12 11 11 12 14 16 18 20 21 22 23 25 25 25 25 25 25 25 24 25 25 26 27 28 28 29 29 29 30 30 31 31 31 32 32 32 32 31 31 31 29
11 9 5 4 4 2 2 5 5 7 12 8 1 5 15 18 17 19 21 21 18 17 19 15 6 6 9 9 10 11 11 9 6 5 6 6 7 9 9 10 11 10 10 10 11 11 10 10 13 15 18 20 21 21 22 23 24 24 25 26 25 26 26 25 26 26 27 28 28 30 31 32 32 33 32 33 33 33 33 32 32 32 32 31 31 30
13 11 5 3 4 3 4 6 8 8 6 5 4 2 6 10 12 15 17 17 16 14 15 15 13 10 10 10 8 6 6 4 4 5 8 8 8 9 10 11 11 11 11 11 11 12 13 17 21 22 22 22 22 23 23 24 25 25 25 26 26 26 26 26 27 28 29 30 31 32 34 35 36 36 35 35 35 34 34 33 33 33 32 32 31 30
10 10 6 3 2 3 5 7 5 4 6 9 8 4 6 9 11 11 10 13 14 14 14 16 16 12 10 9 6 3 3 1 4 7 8 8 9 11 12 10 9 9 10 11 13 14 16 19 21 21 21 22 23 25 25 25 26 27 27 27 27 27 28 28 29 30 31 32 33 35 36 38 39 38 38 37 37 36 35 34 34 33 32 33 32 30
6 7 8 7 3 3 5 4 3 4 11 12 6 4 6 8 11 12 8 11 12 15 16 16 13 12 12 9 6 4 3 1 7 9 7 9 11 10 9 8 7 8 10 12 13 12 13 16 18 20 23 24 25 26 26 27 28 28 29 28 29 29 29 30 31 32 33 34 35 36 37 39 40 40 40 39 37 36 35 33 33 32 31 32 31 29
5 2 6 7 3 3 6 6 6 9 11 6 6 7 8 10 11 11 2 9 9 11 14 14 12 12 13 12 9 7 5 6 12 8 7 11 12 8 8 9 8 7 9 11 13 14 15 17 19 20 22 25 27 28 29 30 31 30 30 30 30 30 30 32 33 34 35 35 35 36 37 38 39 40 39 38 36 35 35 33 33 31 30 30 30 28
5 2 4 6 5 5 7 6 5 7 7 5 7 8 9 12 14 12 2 10 7 10 11 13 14 14 15 13 10 9 10 12 11 7 9 10 8 5 6 7 7 7 7 9 12 14 17 20 22 24 27 30 31 32 32 32 32 31 30 30 30 31 32 34 34 34 35 35 35 35 36 37 38 38 38 37 35 35 34 33 32 31 30 29 28 27
3 1 2 5 6 6 7 6 5 5 6 7 6 8 11 12 11 8 9 9 6 9 11 14 17 17 16 13 10 10 13 10 4 4 7 7 4 3 2 3 5 7 8 10 13 15 19 22 24 27 29 31 33 34 34 34 32 30 29 30 31 32 32 33 33 33 34 34 34 35 35 36 36 36 36 36 35 35 34 33 32 31 31 30 28 27
5 3 2 4 6 4 5 5 4 7 6 6 4 5 8 9 6 9 8 3 5 7 7 9 12 12 11 11 10 11 11 5 4 3 4 5 5 4 3 4 5 5 7 10 14 18 21 22 23 24 25 28 32 34 36 35 32 30 30 30 31 30 30 31 33 33 34 34 34 34 34 35 35 35 35 35 35 35 34 32 32 31 31 30 28 27
9 8 5 6 6 3 2 5 5 8 6 11 12 4 3 5 8 7 2 3 2 6 6 7 8 8 9 10 11 12 10 5 4 4 4 4 5 4 4 5 6 7 9 11 14 19 22 21 21 23 25 27 31 34 35 34 32 29 29 29 28 28 29 31 33 33 33 33 34 34 34 34 34 34 35 35 35 35 34 33 32 31 30 29 28 27
6 8 7 7 5 5 7 9 7 5 8 14 15 10 10 8 5 6 6 3 2 4 6 6 7 8 10 11 11 11 9 6 5 6 5 5 5 5 5 6 6 8 10 12 15 19 21 19 19 21 22 26 30 32 34 34 32 29 28 28 27 28 30 32 33 33 33 33 34 34 34 34 34 34 35 36 35 35 35 34 32 31 29 28 28 27
8 8 6 4 4 5 7 8 5 2 6 10 8 8 12 11 4 5 9 7 4 5 5 5 6 8 9 9 9 9 8 7 7 7 7 7 7 6 6 7 8 9 11 11 14 17 19 18 19 20 21 24 28 30 32 32 31 29 28 27 27 30 32 33 33 33 33 34 34 35 34 34 34 34 35 35 35 35 35 34 33 31 30 29 28 27
5 4 5 3 2 4 5 5 5 2 3 7 5 2 6 9 4 3 6 6 5 6 6 5 7 9 9 8 8 7 8 8 8 7 6 6 6 6 6 6 7 10 11 12 14 17 18 17 18 20 21 22 26 29 30 30 29 28 28 28 29 31 33 34 35 34 34 35 35 35 35 35 34 33 33 33 32 33 34 34 33 32 31 29 28 27
3 4 5 3 4 5 7 7 7 5 6 10 7 3 2 3 3 3 5 5 5 6 7 7 6 7 8 9 9 9 8 8 8 7 6 6 6 7 6 6 8 11 13 14 16 19 20 18 19 21 21 23 26 28 29 28 27 27 28 29 30 33 35 36 37 37 36 36 35 35 35 35 34 33 32 32 31 31 32 32 32 32 31 31 29 28
3 5 5 4 6 7 7 5 2 1 3 5 5 3 3 3 5 5 4 3 2 3 4 3 3 6 7 8 9 9 7 6 8 8 7 6 6 6 7 7 9 12 13 15 18 21 21 21 21 22 23 24 26 28 28 28 26 27 28 30 32 35 37 37 37 37 37 36 35 35 34 34 35 34 33 32 31 31 31 31 31 31 31 31 31 29
5 6 6 6 7 6 6 2 3 3 3 4 5 7 7 7 8 7 3 1 2 3 3 2 1 4 7 8 8 8 7 7 8 8 7 7 7 7 8 9 11 13 15 17 20 22 22 21 22 23 23 24 26 28 28 28 27 28 29 31 34 36 38 37 36 35 35 35 34 34 34 34 34 35 34 32 30 29 29 29 30 30 29 29 28 26
7 6 5 5 7 9 9 6 7 5 3 6 10 13 12 8 7 6 2 3 5 6 7 6 2 0 3 5 6 8 8 8 7 7 7 7 7 8 9 10 12 14 16 17 19 21 21 20 21 22 22 23 26 28 29 29 29 28 30 32 35 37 38 38 35 34 33 34 34 34 34 34 33 33 32 32 30 28 26 24 24 25 25 24 23 22
7 9 9 8 9 12 11 10 10 8 7 7 9 12 10 6 8 9 8 8 8 7 8 8 6 3 4 4 4 6 7 6 6 8 7 6 6 8 10 12 13 14 16 18 19 20 19 19 20 22 23 24 26 28 29 29 29 30 31 33 36 38 39 38 36 34 34 34 35 35 35 35 34 33 32 31 30 29 28 25 21 20 20 21 20 19
Wind_Direction
154 180 210 204 196 196 192 184 181 199 177 169 178 190 201 208 236 237 231 289 217 167 225 213 217 247 247 255 261 257 144 232 237 240 238 237 230 224 228 233 233 231 238 245 243 237 231 228 226 224 223 223 223 223 222 221 220 221 221 221 222 222 221 220 219 219 219 218 220 221 224 227 229 230 232 234 236 238 241 242 242 243 243 242 242 242
165 200 212 203 193 190 178 148 149 248 251 211 198 203 220 213 231 249 228 310 331 173 252 240 218 255 257 258 267 239 220 251 236 227 233 230 225 226 228 234 237 238 248 253 246 238 232 229 226 224 223 221 222 222 221 221 221 221 222 222 223 222 220 220 220 220 220 220 220 221 223 226 227 229 231 233 235 237 240 241 241 242 244 243 242 242
191 213 204 194 177 162 166 151 159 221 248 245 221 193 222 223 251 286 283 325 3 171 274 320 203 256 264 260 263 235 221 244 236 226 229 221 221 229 227 233 237 242 250 246 240 236 230 227 224 221 221 221 221 222 221 221 222 222 222 222 223 222 221 221 222 221 222 223 224 225 227 228 229 231 234 236 238 239 240 241 241 242 243 244 244 242
198 215 195 183 159 157 177 175 169 204 239 237 214 189 218 203 177 278 297 326 20 80 212 148 235 268 272 273 269 241 224 245 250 239 236 222 219 227 228 230 227 230 240 239 236 235 229 225 221 218 219 220 220 221 221 220 221 221 221 222 222 222 222 223 222 222 224 225 226 227 229 231 232 234 237 238 240 240 240 240 241 241 242 243 244 243
203 208 168 160 161 169 181 191 190 201 228 235 219 197 200 186 196 232 273 320 349 351 106 93 336 292 267 270 267 255 242 259 257 249 252 242 229 237 246 242 227 225 231 233 233 229 223 220 218 218 218 218 219 219 220 219 219 221 221 222 222 222 223 223 223 223 223 224 223 223 225 227 230 232 233 235 236 237 238 239 240 241 241 242 244 244
220 221 156 157 173 175 183 201 201 197 211 241 229 198 192 203 214 216 167 93 21 289 293 89 290 281 287 275 253 262 310 276 257 237 247 247 238 238 246 245 236 232 232 231 234 228 221 221 221 220 218 217 218 220 220 221 221 221 222 223 223 223 223 223 223 223 222 220 219 217 216 217 220 223 226 229 233 233 234 237 240 242 242 243 243 245
205 198 163 171 181 178 195 213 205 190 190 237 226 189 192 206 199 175 160 148 193 249 289 97 204 256 305 283 247 273 308 278 272 260 251 248 243 234 233 240 239 237 236 234 238 231 224 223 221 222 220 217 220 222 222 222 222 221 222 223 223 223 223 223 223 222 221 218 217 217 217 218 218 221 227 231 234 234 235 237 240 242 244 244 244 244
164 154 170 183 181 188 209 215 201 180 176 235 222 172 177 186 187 184 176 190 216 233 315 39 163 235 275 257 256 322 308 282 281 270 260 250 240 235 234 238 237 232 229 227 231 227 221 219 217 219 221 220 223 224 223 221 222 221 221 222 223 224 224 224 223 221 220 218 217 218 219 220 221 224 230 233 235 236 238 239 240 242 245 246 246 245
160 172 186 183 185 205 208 194 172 165 184 237 197 151 163 169 175 181 174 197 230 166 261 258 153 207 261 268 296 345 274 274 276 263 257 250 240 237 239 242 240 236 228 224 227 225 221 218 218 221 223 223 225 224 223 223 223 223 222 222 222 224 224 223 223 221 221 220 219 219 219 221 224 227 231 233 235 238 239 240 242 243 245 246 248 246
192 194 182 174 192 206 194 177 168 171 197 224 146 107 83 96 102 132 160 160 109 211 230 217 182 211 264 273 284 311 255 257 265 261 253 249 245 240 244 248 246 241 232 227 229 227 225 223 223 225 226 227 227 225 225 225 224 223 222 221 221 222 223 223 224 223 223 222 220 220 221 222 225 227 229 231 234 236 237 240 242 243 244 244 246 247
293 252 153 169 201 189 166 160 173 177 172 129 108 80 56 52 62 73 111 105 140 236 240 219 197 210 267 266 240 225 224 223 239 261 261 259 269 258 249 249 246 242 234 229 232 233 233 232 232 231 230 231 230 228 226 225 225 224 223 222 221 222 223 223 223 223 224 223 222 222 222 224 225 226 227 228 230 232 234 237 240 242 243 243 245 248
10 59 162 223 208 133 140 162 22 115 153 126 101 107 93 14 33 47 6 73 193 238 260 253 195 173 240 253 241 235 237 229 228 247 258 261 277 276 264 256 247 243 242 236 234 236 236 237 234 230 231 232 229 226 225 223 224 223 222 222 222 222 222 222 223 223 223 224 223 224 224 225 226 226 226 227 228 230 232 236 241 241 239 240 243 245
8 217 248 304 259 143 141 171 27 34 164 151 122 136 144 283 110 193 248 204 222 245 268 264 178 198 240 249 260 259 255 251 234 227 244 251 265 278 281 277 264 252 246 240 238 235 231 229 224 222 227 228 224 222 222 222 221 221 222 221 221 222 222 221 222 222 223 223 224 225 225 226 227 227 228 228 229 232 235 238 240 239 238 238 238 240
209 286 277 194 249 186 160 179 189 162 181 168 152 157 165 158 169 205 233 264 249 258 264 256 207 246 276 258 245 248 250 252 241 226 235 238 247 264 279 290 294 290 265 242 247 243 230 225 217 214 218 218 218 220 221 221 220 220 220 220 221 222 222 221 221 222 223 224 226 227 227 227 227 228 229 230 231 234 237 239 240 241 242 241 241 243
185 242 224 180 213 187 177 192 169 137 156 189 164 144 164 171 177 203 211 203 224 256 275 261 207 202 208 234 236 238 254 266 256 243 244 243 246 259 281 289 284 285 278 256 258 255 243 240 226 217 213 210 211 215 219 221 221 220 220 220 221 221 221 221 221 222 223 224 226 228 228 229 228 229 230 231 234 236 238 240 241 242 244 244 246 247
187 222 257 195 187 156 169 207 136 123 154 214 143 135 196 189 151 157 188 185 178 198 248 223 227 212 202 274 274 252 259 267 258 256 255 253 254 254 267 269 257 261 269 263 265 266 262 252 236 227 221 217 217 216 216 217 217 219 220 221 222 223 223 223 222 223 225 226 227 228 228 229 228 229 230 231 234 237 239 241 242 242 243 244 244 241
183 215 311 14 67 136 152 170 144 138 175 178 136 189 224 162 114 125 207 225 103 199 246 202 245 289 308 286 288 290 279 268 256 249 240 246 254 244 244 247 242 243 249 254 256 261 268 249 220 223 221 219 224 228 226 219 215 216 217 218 219 220 221 222 223 224 225 225 225 225 226 227 227 228 229 232 234 235 237 238 240 240 239 236 231 221
160 126 319 100 113 166 156 138 98 37 144 143 184 202 195 99 104 118 171 350 84 221 268 247 223 274 264 254 300 322 287 268 257 242 242 258 255 232 238 238 237 240 244 263 265 256 261 229 180 188 201 208 214 223 225 218 215 214 213 214 213 213 214 216 218 220 221 222 222 223 224 224 226 228 230 232 233 233 233 232 231 230 224 217 208 197
145 120 317 10 130 268 34 121 150 317 138 159 196 183 139 176 209 137 157 191 191 224 275 306 262 251 204 215 296 292 254 252 256 244 235 250 237 225 238 238 239 248 252 262 258 241 238 196 158 159 172 188 191 194 200 203 210 213 212 212 209 209 209 209 210 212 214 217 219 221 222 222 223 224 226 227 226 226 224 222 217 210 202 193 187 185
137 136 267 303 176 328 23 133 189 214 221 73 130 178 153 176 187 177 166 170 181 213 245 297 298 254 215 203 224 247 246 240 246 241 222 228 225 220 229 229 231 234 233 239 230 206 190 160 153 152 160 168 167 170 171 178 189 195 201 203 202 202 200 199 200 200 201 203 206 209 210 212 213 213 215 216 215 212 208 203 195 187 181 177 176 180
119 133 178 285 350 154 177 218 196 188 180 152 157 187 194 51 151 175 181 133 145 185 195 249 271 256 235 200 202 228 243 235 224 223 226 230 227 227 230 227 228 225 224 229 202 176 168 152 142 139 148 151 152 158 159 165 170 170 177 185 191 193 191 189 189 188 190 188 190 194 193 194 198 199 200 197 194 190 183 179 176 172 170 168 170 175
156 138 149 144 149 178 215 270 206 180 181 175 180 187 179 138 112 162 235 213 116 174 177 187 254 260 235 200 202 217 233 238 217 202 226 243 235 235 237 226 225 226 217 202 167 159 150 133 129 133 143 149 155 162 163 166 168 165 167 169 175 181 181 182 181 179 179 176 175 178 176 177 180 181 181 178 176 174 170 169 169 169 169 166 166 169
119 101 113 136 204 204 257 302 182 195 164 154 199 193 171 170 154 173 219 219 121 228 160 132 261 268 248 204 209 222 238 264 228 193 223 255 248 240 246 238 231 235 156 139 128 125 121 126 135 140 146 152 157 161 163 166 166 163 162 162 166 168 169 172 172 171 169 166 166 166 166 168 169 171 173 170 169 168 166 168 169 171 173 171 169 170
134 115 104 43 308 304 320 337 37 33 71 186 235 194 166 193 175 162 196 181 174 211 163 151 259 264 282 289 239 245 271 299 274 219 225 256 265 260 270 283 97 97 95 104 109 109 118 136 148 151 155 158 158 161 164 165 163 159 157 157 159 158 157 159 161 162 163 162 163 163 164 164 164 167 169 167 167 167 167 168 168 171 177 176 175 176
172 146 127 124 81 13 333 324 304 258 200 201 219 170 166 159 113 116 150 125 204 216 170 194 245 242 277 316 295 252 278 277 262 240 225 244 272 308 344 37 94 120 115 114 121 124 141 159 168 168 166 163 160 162 165 166 165 161 158 158 159 154 153 156 159 161 163 163 161 160 162 162 163 165 167 167 168 167 167 168 169 171 175 175 174 176
146 155 150 153 160 186 204 213 218 203 186 203 122 127 155 135 133 159 125 118 236 224 166 204 238 246 294 322 306 252 267 270 262 250 234 244 276 347 44 97 118 134 144 150 153 162 175 181 185 178 172 170 168 168 169 170 168 165 164 166 167 164 160 160 163 163 163 165 164 162 163 163 164 166 167 168 168 167 167 169 171 174 176 177 177 173
110 150 177 179 190 202 199 190 152 124 137 200 182 143 152 164 172 156 122 204 224 159 204 231 218 214 272 290 249 240 230 237 252 254 263 274 280 18 98 124 144 152 166 176 177 182 186 191 199 189 180 178 175 174 174 174 170 168 170 171 174 177 173 171 173 173 170 171 171 170 170 171 173 174 173 171 170 170 169 169 173 175 173 176 176 168
101 187 197 196 209 209 176 163 157 147 176 195 184 173 177 183 180 165 199 224 200 132 240 235 179 186 239 240 227 231 224 236 252 251 259 264 250 164 127 146 164 166 182 195 196 197 194 195 200 195 189 184 179 178 178 176 174 174 175 175 177 181 181 179 180 180 180 179 178 177 177 180 184 182 177 173 170 169 169 169 171 170 167 167 165 160
140 207 202 195 216 219 121 164 173 169 186 184 181 191 189 182 181 190 216 222 195 186 234 205 147 188 220 225 230 228 217 232 241 232 225 189 136 139 160 172 180 194 209 212 211 210 205 203 200 196 195 189 185 183 179 176 176 176 177 177 177 178 178 178 176 175 176 178 177 175 173 171 171 170 168 167 166 167 169 169 167 165 161 159 157 154
170 198 184 184 205 213 191 196 178 167 162 159 187 196 189 187 195 206 222 223 211 219 226 101 103 234 226 221 233 229 216 223 241 246 156 133 153 172 175 185 200 212 216 214 217 215 209 209 204 199 198 195 192 187 180 178 177 177 179 178 178 178 176 177 175 171 169 168 167 166 165 165 165 165 167 169 169 169 168 166 163 159 156 154 153 152
204 189 155 158 188 224 252 211 182 169 168 176 194 192 187 198 208 218 226 223 221 234 230 62 336 283 256 240 235 217 202 201 248 248 177 172 193 181 179 204 214 219 220 218 217 214 211 211 206 203 204 201 197 190 184 181 179 178 179 178 179 179 177 177 177 173 170 167 164 164 165 166 167 169 171 171 170 168 164 161 158 155 153 152 150 149
170 176 116 132 183 233 226 153 137 90 101 185 214 201 197 203 211 221 225 214 217 227 227 258 272 247 229 254 250 198 157 183 224 228 197 204 206 181 194 220 222 223 222 217 214 210 210 209 204 207 206 202 198 193 187 183 178 178 179 178 179 179 177 178 178 175 172 170 168 167 168 169 169 168 168 166 164 162 159 157 154 152 151 150 148 148
134 139 117 151 186 235 45 128 126 89 81 245 233 209 204 209 216 222 229 223 220 213 205 232 241 198 176 216 222 228 233 225 237 228 198 209 212 201 215 225 226 229 221 214 214 211 212 211 207 208 204 199 198 196 191 185 182 181 181 179 179 178 177 178 178 178 175 172 171 170 170 170 168 165 163 161 159 157 155 154 153 152 151 150 149 150
141 141 152 166 167 206 165 130 112 123 207 234 225 194 198 206 209 211 223 225 217 207 214 230 229 156 163 181 190 206 217 219 230 225 206 201 195 206 228 232 232 233 223 217 217 215 215 211 207 209 204 200 200 197 194 190 187 185 182 180 179 178 178 178 177 178 176 173 172 170 168 168 165 162 159 158 157 156 155 154 153 152 152 152 152 152
159 155 164 155 127 151 165 116 134 210 228 239 283 182 196 198 195 204 220 224 216 213 223 232 217 163 176 186 190 197 205 217 241 245 233 217 190 194 217 230 231 228 222 221 221 220 215 198 196 201 202 201 199 194 192 190 186 183 180 179 178 177 177 177 176 175 175 173 171 170 167 166 163 160 158 158 158 157 157 156 155 154 154 155 155 155
172 169 157 128 124 133 137 157 192 227 261 282 299 253 187 183 188 206 228 237 228 222 225 226 219 202 193 201 207 204 207 237 298 269 235 220 204 202 210 220 223 220 219 219 216 215 208 199 198 199 197 195 192 189 190 188 184 180 177 177 177 176 177 177 176 175 175 174 173 170 168 166 164 162 160 160 160 160 160 159 158 157 157 156 155 154
169 162 143 144 169 133 150 192 222 315 305 258 242 214 167 168 176 189 224 246 232 217 217 220 216 210 208 215 225 218 179 165 299 269 239 216 215 216 216 221 223 219 223 227 225 223 216 208 204 198 192 188 185 186 188 185 182 178 174 175 176 176 177 177 177 177 176 176 175 172 170 168 166 164 163 163 163 162 162 162 160 159 159 157 154 152
152 163 162 173 190 100 131 194 245 265 250 238 212 157 158 165 164 164 198 247 231 209 213 216 206 201 208 213 211 188 135 220 257 251 231 223 226 220 222 242 242 227 229 228 222 218 211 203 198 193 189 184 182 186 187 184 182 177 174 175 176 176 177 178 179 180 178 178 177 174 172 170 168 167 165 165 165 164 163 162 160 159 160 158 155 152
92 105 149 154 155 128 150 181 203 225 240 223 161 161 162 155 137 119 160 262 233 198 205 203 188 190 200 202 193 157 142 228 245 236 208 222 229 209 205 234 240 233 236 227 213 206 195 188 185 182 181 181 182 186 187 185 182 178 175 177 177 176 179 181 183 182 180 179 177 175 173 171 170 168 167 166 166 165 164 162 160 159 160 160 157 154
88 74 141 157 173 171 172 192 215 233 246 224 189 177 159 144 123 106 247 258 208 170 184 184 181 192 197 193 178 164 187 220 235 220 196 209 224 199 191 220 224 215 217 208 203 199 188 179 175 174 180 186 187 186 186 184 181 180 179 178 177 180 184 185 184 182 180 178 177 175 173 171 170 169 168 167 167 166 165 163 162 161 161 161 160 158
100 100 179 176 174 170 182 209 254 261 237 228 210 170 148 131 120 149 219 232 184 172 184 181 185 194 195 186 173 188 213 216 190 175 184 186 200 193 156 178 191 194 197 192 188 185 179 180 182 184 188 190 187 184 183 181 180 181 181 179 182 186 188 186 182 180 178 177 177 175 173 172 171 170 169 169 168 167 166 166 166 166 165 164 163 161
159 166 195 171 160 161 181 200 261 272 230 179 153 166 156 140 164 209 217 191 168 185 187 185 189 188 185 184 187 209 223 198 125 159 184 171 184 184 138 134 145 159 179 182 183 182 178 179 185 188 189 189 185 183 182 181 181 183 182 183 187 189 187 183 180 179 177 176 176 175 173 172 172 171 171 171 170 169 167 168 168 169 168 167 165 162
173 167 186 188 167 142 153 182 232 260 217 136 118 127 225 194 193 205 172 76 157 173 165 184 191 175 174 187 201 219 222 188 169 209 207 185 185 172 163 173 171 171 174 173 181 185 180 178 184 187 186 186 184 183 182 181 183 184 184 187 189 187 184 181 179 177 176 175 176 175 174 173 173 173 173 173 173 172 170 169 169 170 170 169 166 162
186 175 186 199 183 161 179 200 216 217 173 151 144 166 208 207 174 152 146 146 215 191 171 186 198 187 181 185 197 213 216 203 204 214 209 204 197 182 185 193 187 184 183 182 185 185 181 180 182 182 183 185 184 184 184 185 185 185 186 188 187 184 181 179 177 175 175 175 175 175 175 174 174 175 175 174 174 173 170 169 170 170 170 170 168 165
212 196 170 177 196 192 197 212 225 185 167 176 174 180 192 193 175 152 160 164 200 205 180 180 197 196 189 184 184 196 206 207 204 200 201 204 196 186 190 195 192 188 185 184 184 183 182 182 178 177 180 185 186 187 188 189 188 186 186 186 185 183 180 177 175 175 175 176 176 176 175 175 175 176 176 175 175 174 172 171 172 171 171 172 172 169
230 186 131 128 216 267 270 223 190 188 209 208 222 235 193 193 202 184 172 179 195 189 178 187 193 188 185 180 172 186 209 206 194 196 203 200 193 191 189 188 189 185 180 178 179 180 181 179 176 176 179 183 188 190 190 192 194 190 187 186 184 183 181 178 177 177 177 177 177 176 176 175 174 174 175 174 176 177 176 175 175 175 174 175 175 175
269 178 155 152 169 210 243 221 179 174 204 206 214 266 263 213 202 184 190 205 202 186 194 207 192 169 170 174 177 193 206 190 178 189 199 192 191 195 191 186 187 186 183 182 179 178 177 176 176 179 182 185 190 192 192 194 196 195 191 187 185 184 183 181 179 178 178 177 176 176 176 175 173 173 174 175 177 178 177 178 179 179 178 178 179 179
205 169 169 181 173 186 224 237 170 163 242 222 215 237 250 220 208 210 220 232 219 197 203 203 145 144 161 181 189 190 184 176 181 187 189 194 198 195 193 194 190 185 186 185 182 180 180 181 183 185 187 188 190 191 192 194 195 196 195 190 187 186 183 181 181 179 178 177 176 176 176 176 175 175 175 177 179 180 180 181 182 183 184 185 186 186
132 153 175 182 189 220 260 265 102 65 338 289 237 226 230 220 206 208 221 181 170 176 168 149 136 166 178 185 181 169 170 194 198 184 179 190 195 192 196 194 186 184 186 186 186 186 187 189 190 190 190 191 191 190 192 194 195 197 196 193 190 187 184 182 181 180 178 178 176 175 176 177 177 177 177 178 180 182 183 184 186 188 189 190 192 194
134 164 177 158 183 225 240 205 158 149 214 229 215 214 219 209 183 175 157 162 187 186 171 163 152 171 198 189 171 168 184 203 198 181 184 197 200 197 193 183 180 185 187 186 187 191 194 196 196 193 193 193 192 191 192 194 195 196 197 196 193 189 185 182 180 179 179 178 177 177 178 178 178 179 179 179 179 179 180 183 187 191 191 191 192 196
179 179 171 167 199 225 222 191 178 192 218 220 206 203 202 177 158 173 190 197 200 197 179 167 156 162 204 216 190 178 186 189 180 180 190 202 200 192 185 181 181 183 184 185 187 191 197 200 199 198 197 195 193 193 193 194 196 196 198 198 195 191 188 184 181 180 180 181 181 181 181 180 180 180 180 179 179 177 174 173 176 184 190 191 191 193